• In Hungary
  • List of Countries
  • For 7 days
  • Water Temperature
  • Satellite Maps
  • Weather Map
  • News
  • Weather Widgets
  • user-avatar
    Login

    Hourly Weather Zernovoy

    Today, 18 September, Tuesday

    Time Temperature Precipitation Wind Pressure Humidity
    00:00 +21°C° 0 mm 3 mps 748 mmHg 24%
    01:00 +20°C° 0 mm 3 mps 748 mmHg 27%
    02:00 +19°C° 0 mm 3 mps 748 mmHg 37%
    03:00 +18°C° 0 mm 3 mps 748 mmHg 48%
    04:00 +17°C° 0 mm 2 mps 747 mmHg 61%
    05:00 +17°C° 0 mm 2 mps 747 mmHg 68%
    06:00 +16°C° 0 mm 2 mps 747 mmHg 75%
    07:00 +16°C° 0 mm 2 mps 747 mmHg 83%
    08:00 +18°C° 0 mm 2 mps 747 mmHg 73%
    09:00 +19°C° 0 mm 3 mps 747 mmHg 64%
    10:00 +21°C° 0 mm 3 mps 748 mmHg 56%
    11:00 +21°C° 0 mm 3 mps 747 mmHg 53%
    12:00 +21°C° 0 mm 3 mps 747 mmHg 50%
    13:00 +21°C° 0 mm 4 mps 747 mmHg 47%
    14:00 +21°C° 0 mm 4 mps 747 mmHg 46%
    15:00 +21°C° 0 mm 3 mps 747 mmHg 45%
    16:00 +21°C° 0 mm 3 mps 746 mmHg 45%
    17:00 +20°C° 0 mm 3 mps 746 mmHg 47%
    18:00 +19°C° 0 mm 3 mps 746 mmHg 50%
    19:00 +18°C° 0 mm 3 mps 746 mmHg 53%
    20:00 +17°C° 0 mm 3 mps 746 mmHg 55%
    21:00 +17°C° 0 mm 3 mps 746 mmHg 57%
    22:00 +16°C° 0 mm 3 mps 745 mmHg 58%
    23:00 +15°C° 0.1 mm 4 mps 745 mmHg 63%

    Tomorrow, 19 September, Wednesday

    Time Temperature Precipitation Wind Pressure Humidity
    00:00 +14°C° 0.1 mm 4 mps 745 mmHg 68%
    01:00 +14°C° 0.1 mm 5 mps 745 mmHg 74%
    02:00 +14°C° 0.1 mm 5 mps 745 mmHg 76%
    03:00 +13°C° 0.1 mm 6 mps 745 mmHg 78%
    04:00 +13°C° 0.1 mm 6 mps 745 mmHg 80%
    05:00 +11°C° 0 mm 6 mps 745 mmHg 78%
    06:00 +11°C° 0 mm 6 mps 746 mmHg 76%
    07:00 +10°C° 0 mm 6 mps 746 mmHg 74%
    08:00 +11°C° 0 mm 6 mps 746 mmHg 71%
    09:00 +13°C° 0 mm 6 mps 746 mmHg 69%
    10:00 +14°C° 0 mm 6 mps 746 mmHg 66%
    11:00 +14°C° 0.2 mm 7 mps 746 mmHg 65%
    12:00 +14°C° 0.2 mm 7 mps 746 mmHg 65%
    13:00 +13°C° 0.2 mm 8 mps 746 mmHg 64%
    14:00 +13°C° 0 mm 8 mps 747 mmHg 61%
    15:00 +12°C° 0 mm 8 mps 747 mmHg 59%
    16:00 +12°C° 0 mm 7 mps 747 mmHg 56%
    17:00 +12°C° 0 mm 7 mps 747 mmHg 58%
    18:00 +11°C° 0 mm 6 mps 748 mmHg 61%
    19:00 +10°C° 0 mm 6 mps 748 mmHg 63%
    20:00 +10°C° 0 mm 6 mps 748 mmHg 65%
    21:00 +9°C° 0 mm 5 mps 748 mmHg 67%
    22:00 +9°C° 0 mm 5 mps 748 mmHg 69%
    23:00 +8°C° 0 mm 5 mps 748 mmHg 72%

    Day after tomorrow, 20 September, Thursday

    Time Temperature Precipitation Wind Pressure Humidity
    00:00 +8°C° 0 mm 5 mps 748 mmHg 75%
    01:00 +7°C° 0 mm 5 mps 748 mmHg 78%
    02:00 +7°C° 0 mm 5 mps 748 mmHg 78%
    03:00 +8°C° 0 mm 5 mps 748 mmHg 77%
    04:00 +8°C° 0 mm 5 mps 748 mmHg 76%
    05:00 +8°C° 0.1 mm 5 mps 749 mmHg 76%
    06:00 +8°C° 0.1 mm 6 mps 749 mmHg 76%
    07:00 +8°C° 0.1 mm 6 mps 749 mmHg 76%
    08:00 +9°C° 0 mm 6 mps 749 mmHg 70%
    09:00 +10°C° 0 mm 7 mps 750 mmHg 65%
    10:00 +11°C° 0 mm 7 mps 750 mmHg 59%
    11:00 +12°C° 0 mm 7 mps 750 mmHg 53%
    12:00 +15°C° 0 mm 7 mps 750 mmHg 47%
    13:00 +16°C° 0 mm 7 mps 750 mmHg 41%
    14:00 +16°C° 0 mm 7 mps 750 mmHg 40%
    15:00 +16°C° 0 mm 6 mps 750 mmHg 38%
    16:00 +17°C° 0 mm 6 mps 750 mmHg 37%
    17:00 +15°C° 0 mm 5 mps 751 mmHg 42%
    18:00 +14°C° 0 mm 4 mps 751 mmHg 46%
    19:00 +12°C° 0 mm 3 mps 751 mmHg 51%
    20:00 +11°C° 0 mm 3 mps 751 mmHg 54%
    21:00 +12°C° 0 mm 2 mps 751 mmHg 56%
    22:00 +10°C° 0 mm 2 mps 751 mmHg 59%
    23:00 +10°C° 0 mm 2 mps 751 mmHg 60%

    21 September, Friday

    Time Temperature Precipitation Wind Pressure Humidity
    00:00 +11°C° 0 mm 1 mps 751 mmHg 62%
    01:00 +11°C° 0 mm 1 mps 751 mmHg 63%
    02:00 +11°C° 0.2 mm 1 mps 751 mmHg 65%
    03:00 +12°C° 0.2 mm 1 mps 751 mmHg 66%
    04:00 +12°C° 0.2 mm 1 mps 751 mmHg 68%
    05:00 +12°C° 0.9 mm 1 mps 751 mmHg 74%
    06:00 +12°C° 0.9 mm 1 mps 751 mmHg 79%
    07:00 +11°C° 0.9 mm 1 mps 751 mmHg 85%
    08:00 +12°C° 0 mm 1 mps 751 mmHg 82%
    09:00 +13°C° 0 mm 1 mps 751 mmHg 80%
    10:00 +14°C° 0 mm 1 mps 752 mmHg 77%
    11:00 +14°C° 0 mm 1 mps 752 mmHg 74%
    12:00 +15°C° 0 mm 2 mps 752 mmHg 71%
    13:00 +16°C° 0 mm 2 mps 752 mmHg 69%
    14:00 +16°C° 0 mm 3 mps 752 mmHg 67%
    15:00 +17°C° 0 mm 3 mps 753 mmHg 66%
    16:00 +17°C° 0 mm 4 mps 753 mmHg 65%
    17:00 +16°C° 0 mm 3 mps 753 mmHg 69%
    18:00 +14°C° 0 mm 3 mps 754 mmHg 73%
    19:00 +13°C° 0 mm 3 mps 754 mmHg 77%
    20:00 +13°C° 0 mm 3 mps 755 mmHg 79%
    21:00 +12°C° 0 mm 3 mps 755 mmHg 82%
    22:00 +11°C° 0 mm 3 mps 755 mmHg 84%
    23:00 +10°C° 0 mm 3 mps 756 mmHg 83%

    22 September, Saturday

    Time Temperature Precipitation Wind Pressure Humidity
    00:00 +10°C° 0 mm 3 mps 756 mmHg 82%
    01:00 +9°C° 0 mm 3 mps 756 mmHg 80%
    02:00 +9°C° 0 mm 3 mps 756 mmHg 81%
    03:00 +9°C° 0 mm 2 mps 757 mmHg 81%
    04:00 +8°C° 0 mm 2 mps 757 mmHg 81%
    05:00 +8°C° 0 mm 2 mps 758 mmHg 81%
    06:00 +8°C° 0 mm 2 mps 758 mmHg 81%
    07:00 +8°C° 0 mm 2 mps 758 mmHg 81%
    08:00 +10°C° 0 mm 2 mps 759 mmHg 71%
    09:00 +12°C° 0 mm 3 mps 759 mmHg 62%
    10:00 +14°C° 0 mm 3 mps 759 mmHg 52%
    11:00 +17°C° 0 mm 3 mps 759 mmHg 47%
    12:00 +18°C° 0 mm 3 mps 759 mmHg 41%
    13:00 +19°C° 0 mm 3 mps 759 mmHg 35%
    14:00 +20°C° 0 mm 3 mps 759 mmHg 34%
    15:00 +20°C° 0 mm 3 mps 759 mmHg 34%
    16:00 +20°C° 0 mm 3 mps 759 mmHg 33%
    17:00 +19°C° 0 mm 3 mps 759 mmHg 40%
    18:00 +17°C° 0 mm 2 mps 759 mmHg 47%
    19:00 +16°C° 0 mm 2 mps 759 mmHg 53%
    20:00 +15°C° 0 mm 1 mps 759 mmHg 58%
    21:00 +15°C° 0 mm 1 mps 759 mmHg 63%
    22:00 +14°C° 0 mm 1 mps 759 mmHg 68%
    23:00 +14°C° 0 mm 1 mps 759 mmHg 71%

    23 September, Sunday

    Time Temperature Precipitation Wind Pressure Humidity
    00:00 +13°C° 0 mm 1 mps 759 mmHg 74%
    01:00 +12°C° 0 mm 0 mps 759 mmHg 78%
    02:00 +12°C° 0 mm 0 mps 759 mmHg 80%
    03:00 +12°C° 0 mm 0 mps 759 mmHg 81%
    04:00 +13°C° 0 mm 1 mps 759 mmHg 83%
    05:00 +12°C° 0 mm 0 mps 759 mmHg 84%
    06:00 +12°C° 0 mm 0 mps 759 mmHg 84%
    07:00 +12°C° 0 mm 0 mps 759 mmHg 85%
    08:00 +15°C° 0 mm 1 mps 759 mmHg 78%
    09:00 +18°C° 0 mm 1 mps 759 mmHg 72%
    10:00 +19°C° 0 mm 1 mps 759 mmHg 66%
    11:00 +21°C° 0 mm 1 mps 759 mmHg 61%
    12:00 +22°C° 0 mm 1 mps 758 mmHg 57%
    13:00 +23°C° 0 mm 1 mps 758 mmHg 52%
    14:00 +23°C° 0 mm 1 mps 758 mmHg 51%
    15:00 +23°C° 0 mm 1 mps 757 mmHg 50%
    16:00 +23°C° 0 mm 1 mps 757 mmHg 49%
    17:00 +22°C° 0 mm 1 mps 757 mmHg 53%
    18:00 +21°C° 0 mm 1 mps 757 mmHg 57%
    19:00 +18°C° 0 mm 0 mps 757 mmHg 61%
    20:00 +19°C° 0 mm 1 mps 757 mmHg 63%
    21:00 +19°C° 0 mm 1 mps 757 mmHg 65%
    22:00 +18°C° 0 mm 1 mps 757 mmHg 67%
    23:00 +18°C° 0 mm 1 mps 757 mmHg 69%
    Show more